BEIDOU-3 M25 (58654 NORAD) Tracking and Keplerian Element Data

This shows tracking and keplerian element data for the satellite.

Feedback or suggestion? Click here.




ElementValue
Catalog58654
NameBEIDOU-3 M25
Epoch Orbit29
Epoch Day10.60278281
Epoch Year2024
RAAN92.479
Inclination54.9818
Eccentricity0.0117519
Argument of Perigee178.9635
Mean Anonmoly181.0945
Mean Motion1.82957602
Decay Rate-2E-07
L11 58654U 23207A 24010.60278281 -.00000020 00000+0 00000+0 0 9994
L22 58654 54.9818 92.4790 0117519 178.9635 181.0945 1.82957602 298



Live tracking and technical data element details for BEIDOU-3 M25 (NORAD 58654). BEIDOU-3 M25 can be tracked NOW for your location showing map with azimuth and elevation plus other details from your city location.







IsCatalogInMostPopularTable: catalog: 58654, numindb: 21
Update: records affected: 1



GetName: 58654 BEIDOU-3 M25

Hit Count: updated at: Wed, 17 Apr 2024 01:45:45 GMT